Location: Home
(42.5358°N, 72.7383°W)
Time: 14:54:30
(UTC-05:00)

Explorer 11/Cluster Stage 4 - Pass Details

Date: 16 December 2025
Orbit: 463 x 1179 km, 28.8° (Epoch: 21 January)

Event Time Altitude Azimuth Distance (km) Brightness Sun altitude
Rises 20:20:59 0° 254° (WSW) 3,981 10.9 -43.6°
Reaches altitude 10° 20:24:35 10° 241° (WSW) 2,941 9.9 -44.2°
Enters shadow 20:26:27 16° 229° (SW) 2,494 9.4 -44.6°
